Sisseton, SD

12:58 PM CST on March 01, 2017 (GMT -0600)
Sisseton

Weather History for K8D3 - March, 2014

Change the Weather History Date:

Monday, March 3, 2014

  Actual Average Record
Temperature  
Mean Temperature 9 °F 24 °F  
Max Temperature 15 °F 33 °F 63 °F (2000)
Min Temperature 2 °F 16 °F -10 °F (2002)
Degree Days  
Heating Degree Days 56 41  
Month to date heating degree days 194 124  
Since 1 July heating degree days 7011 6383  
Cooling Degree Days 0 0  
Month to date cooling degree days 0 0  
Year to date cooling degree days 0 0  
Moisture  
Dew Point -5 °F    
Average Humidity 51    
Maximum Humidity 68    
Minimum Humidity 33    
Precipitation  
Precipitation T in 0.04 in 1.09 in (1977)
Month to date precipitation T 0.11  
Year to date precipitation 0.62 0.97  
Snow  
Snow T in - - ()
Month to date snowfall T  
Since 1 July snowfall 21.9  
Snow Depth T in    
Sea Level Pressure  
Sea Level Pressure 30.41 in    
Wind  
Wind Speed 11 mph (South)    
Max Wind Speed 24 mph    
Max Gust Speed 29 mph    
T = Trace of Precipitation, MM = Missing Value Source: NWS Daily Summary

Daily Weather History Graph

Daily Weather History Graph

Search for Another Location

Airport or City:

Trip Planner

Search our weather history database for the weather conditions in past years. The results will help you decide how hot, cold, wet, or windy it might be!

Date:

Astronomy

Mar. 03, 2014 Rise Set
Actual Time 7:02 AM CST 6:17 PM CST
Civil Twilight 6:33 AM CST 6:47 PM CST
Nautical Twilight 5:58 AM CST 7:21 PM CST
Astronomical Twilight 5:24 AM CST 7:56 PM CST
Moon 8:02 AM CST (3/3) 9:33 PM CST (3/3)
Length of Visible Light 12h 14m
Length of Day
11h 14m
Waxing Crescent, 8% of the Moon is Illuminated
Mar 3
Waxing Crescent
Mar 8
First Quarter
Mar 16
Full
Mar 23
Last Quarter
Mar 30
New

Hourly Weather History & Observations

Time (CST) Temp. Windchill Dew Point Humidity Pressure Visibility Wind Dir Wind Speed Gust Speed Precip Events Conditions
12:56 AM 3.0 °F -4.4 °F -8.0 °F 60% 30.63 in - North 3.5 mph - N/A   Unknown
1:56 AM 3.0 °F -4.4 °F -8.0 °F 60% 30.63 in - NE 3.5 mph - N/A   Unknown
2:56 AM 3.0 °F - -8.0 °F 60% 30.60 in - Calm Calm - N/A   Unknown
3:56 AM 3.0 °F -8.0 °F -7.1 °F 63% 30.57 in - SE 5.8 mph - N/A   Unknown
4:56 AM 3.0 °F -9.3 °F -6.0 °F 66% 30.57 in - SE 6.9 mph - N/A   Unknown
5:56 AM 3.9 °F -9.4 °F -5.1 °F 66% 30.54 in - SSE 8.1 mph - N/A   Unknown
6:56 AM 3.9 °F -9.4 °F -5.1 °F 66% 30.52 in - SSE 8.1 mph - N/A   Unknown
7:56 AM 5.0 °F -10.0 °F -5.1 °F 63% 30.51 in - South 10.4 mph - N/A   Unknown
8:56 AM 6.1 °F -9.5 °F -5.1 °F 60% 30.50 in - South 11.5 mph - N/A   Unknown
9:56 AM 9.0 °F -8.5 °F -5.1 °F 53% 30.47 in - South 16.1 mph - N/A   Unknown
10:56 AM 10.9 °F -4.7 °F -9.0 °F 40% 30.44 in - South 13.8 mph 23.0 mph N/A   Unknown
11:56 AM 12.0 °F -3.4 °F -9.0 °F 39% 30.42 in - South 13.8 mph - N/A   Unknown
12:56 PM 12.9 °F -1.6 °F -11.0 °F 34% 30.39 in - South 12.7 mph - N/A   Unknown
1:56 PM 14.0 °F -2.0 °F -11.9 °F 31% 30.35 in - South 16.1 mph - N/A   Unknown
2:56 PM 14.0 °F -4.7 °F -11.9 °F 31% 30.29 in - South 23.0 mph 28.8 mph N/A   Unknown
3:56 PM 14.0 °F -3.9 °F -9.9 °F 34% 30.27 in - South 20.7 mph - N/A   Unknown
4:56 PM 12.9 °F -2.2 °F -8.0 °F 39% 30.30 in - South 13.8 mph 23.0 mph N/A   Unknown
5:56 PM 12.0 °F -1.3 °F -0.0 °F 59% 30.29 in - South 10.4 mph - N/A   Unknown
6:56 PM 10.9 °F -2.6 °F 1.0 °F 64% 30.30 in - SSW 10.4 mph - N/A   Unknown
7:56 PM 10.9 °F -3.4 °F 1.0 °F 64% 30.27 in - South 11.5 mph - N/A   Unknown
8:56 PM 10.0 °F -4.5 °F 1.0 °F 67% 30.25 in - South 11.5 mph - N/A   Unknown
9:56 PM 10.0 °F -2.9 °F 1.0 °F 67% 30.27 in - South 9.2 mph - N/A   Unknown
10:56 PM 10.0 °F -1.9 °F 1.0 °F 67% 30.25 in - South 8.1 mph - N/A   Unknown
11:56 PM 10.0 °F 0.4 °F 1.0 °F 67% 30.24 in - SE 5.8 mph - N/A   Unknown